{"data":{"norad_id":67698,"epoch":"2026-09-19T13:28:14.967840Z","epoch_age_seconds":149931,"freshness":"FRESH","line1":"1 67698U 26025F   26262.56128435  .00015996  00000+0  49661-3 0  9991","line2":"2 67698  97.2871  12.5024 0000936 273.7084  86.4051 15.33454180 35720","mean_motion":15.3345418,"eccentricity":9.36e-5,"inclination_deg":97.2871,"raan_deg":12.5024,"arg_perigee_deg":273.7084,"mean_anomaly_deg":86.4051,"bstar":0.00049661,"rev_number":3572,"period_min":93.905642488777,"perigee_km":464.87529548524,"apogee_km":466.1564273009,"semimajor_km":6843.6528613931,"source":"CELESTRAK","updated_at":"2026-09-20T09:00:43.627962Z"}}